Theta_e
336 341 346 348 347 347 349 348 347 345 343 342 341 341 342 344 342 341 341 340 341 339 340 341 342 343 342 342 342 343 344 345 345 344 343 342 343 344 343 341 341 336 339
339 343 344 347 348 348 350 349 347 346 343 342 341 340 341 344 344 341 341 344 345 342 340 338 339 340 340 339 340 341 342 343 343 343 342 343 343 343 342 340 339 335 337
341 342 343 346 347 348 349 349 348 347 343 342 341 340 341 343 344 343 343 343 344 341 340 340 338 338 337 337 338 338 340 340 341 341 340 336 337 341 341 338 337 335 335
342 341 341 343 347 348 349 348 348 347 345 343 342 341 342 344 344 344 343 343 344 343 342 339 338 339 338 337 337 338 339 340 340 338 334 336 336 340 339 337 335 335 333
340 340 341 343 347 347 348 347 347 347 346 345 344 342 343 344 344 343 344 343 342 342 341 340 340 337 337 337 337 339 339 339 338 334 333 333 333 337 337 335 333 332 333
339 340 340 343 346 347 346 347 347 347 346 346 344 345 344 343 343 343 343 342 342 340 340 339 338 337 337 337 338 338 339 338 334 330 330 332 331 335 334 332 331 331 330
337 339 340 343 345 346 346 346 346 345 346 345 344 343 344 344 343 342 342 341 341 340 338 338 337 337 337 337 337 340 337 334 329 328 327 327 328 334 333 332 330 328 328
337 340 341 337 340 343 344 344 343 343 344 344 343 343 343 343 343 343 342 341 340 339 339 337 337 337 338 336 337 337 334 330 327 325 326 327 333 333 332 331 329 327 326
336 336 340 339 338 335 338 339 340 341 341 342 342 341 339 339 341 341 340 339 339 338 338 337 337 338 338 337 337 335 331 328 326 326 327 328 333 332 332 329 328 327 326
335 335 335 337 338 339 338 332 333 336 337 338 337 336 334 334 336 336 334 336 338 338 338 338 337 338 338 337 335 333 328 327 326 326 327 328 332 332 330 329 327 325 324
304 311 331 334 335 337 337 334 329 330 332 332 332 330 329 333 333 332 331 332 335 336 336 338 337 336 335 334 332 329 326 325 324 325 327 330 331 331 330 327 325 324 323
298 301 305 317 332 335 336 335 333 334 334 332 330 328 330 331 331 331 326 327 331 331 335 335 336 333 328 327 329 327 327 325 325 325 327 330 332 331 329 326 325 324 323
295 298 300 305 312 321 333 334 333 333 332 331 328 327 326 329 329 329 328 328 328 324 331 331 331 326 325 324 328 328 327 326 325 325 327 329 331 331 329 327 325 323 321
297 299 301 301 305 307 309 321 332 331 331 330 329 327 325 325 324 327 326 327 326 325 327 326 324 321 320 322 327 327 327 326 325 325 325 325 329 330 329 327 325 324 322
297 299 301 303 303 306 307 310 314 323 329 330 329 328 327 325 324 324 324 325 326 326 326 324 321 321 319 320 322 326 326 325 324 324 326 320 326 329 329 328 326 324 323
299 298 300 302 303 304 305 306 307 314 317 320 329 328 327 327 325 324 323 323 325 326 326 324 321 319 318 320 319 322 324 324 324 324 324 323 325 327 328 327 326 324 323
299 299 300 301 303 302 302 305 306 308 312 314 316 327 328 327 326 325 324 322 324 326 326 324 321 318 315 316 316 314 316 319 322 322 323 323 324 323 325 326 325 325 323
297 298 300 302 300 300 301 302 304 306 308 313 318 322 325 327 327 326 325 324 325 325 324 322 319 315 313 312 309 310 310 312 310 312 314 318 321 321 323 325 325 323 322
298 296 297 298 298 300 300 301 302 304 306 309 311 315 317 322 327 326 325 325 326 325 323 322 318 315 311 307 304 302 301 303 305 305 306 307 309 315 319 322 321 320 321
296 297 297 298 298 298 299 299 300 301 304 306 309 312 313 315 315 326 325 325 326 325 322 321 316 314 310 304 298 293 293 294 295 296 298 300 300 302 308 317 317 315 318
296 296 297 297 297 296 295 295 296 296 299 301 303 306 308 312 309 307 320 325 326 324 322 320 316 309 305 299 294 291 290 291 291 291 292 293 294 294 296 300 306 312 314
294 295 295 294 294 295 296 296 296 296 297 299 301 303 305 306 308 308 307 318 325 324 322 319 314 307 302 301 303 292 289 291 289 289 291 291 290 292 293 295 296 298 307
293 293 292 293 293 293 293 294 293 294 295 296 298 300 302 306 308 310 311 311 324 324 321 317 311 308 300 301 303 299 289 292 285 287 287 288 289 289 290 292 294 295 296
292 292 292 291 290 291 291 290 289 289 289 292 294 297 299 301 303 305 306 309 318 324 320 314 311 312 304 301 300 298 297 291 291 282 285 286 287 288 288 291 292 293 294
290 289 289 288 287 288 288 288 288 288 290 291 292 294 296 299 302 304 306 307 307 316 319 313 310 311 306 306 303 298 292 292 290 286 280 282 285 286 287 288 289 290 291
288 286 286 285 285 286 286 287 286 286 287 288 289 291 293 295 297 299 303 307 308 306 320 313 311 311 307 308 305 304 299 295 293 289 286 283 284 284 285 286 287 288 288
Wind_Speed
5 7 13 15 16 16 17 17 15 16 16 15 15 15 14 14 13 13 14 16 16 17 16 16 17 17 17 16 16 16 16 16 15 16 15 17 17 20 22 21 18 16 22
11 10 12 13 14 15 14 17 16 15 16 16 16 16 15 13 15 15 15 15 15 17 17 16 16 16 16 16 16 16 15 13 14 14 13 17 21 24 24 21 19 17 21
12 12 12 12 12 13 12 17 17 16 17 16 17 16 15 15 17 17 15 15 16 15 17 16 15 15 17 17 17 17 16 15 14 15 16 8 14 24 23 22 20 20 20
10 11 10 12 12 13 11 15 17 17 16 17 17 18 16 16 17 16 18 14 14 15 16 15 15 15 15 16 17 17 17 17 14 15 7 9 12 23 22 21 20 20 19
8 9 9 14 13 13 13 13 14 15 15 15 17 19 19 17 18 20 17 16 15 15 14 16 15 15 14 15 18 17 16 17 15 10 9 9 10 18 21 21 20 19 20
6 7 9 14 14 13 13 14 15 16 15 16 17 18 18 19 17 17 17 15 13 12 14 15 16 16 15 16 15 16 18 22 15 9 11 13 12 19 21 20 21 20 18
6 6 9 16 13 14 14 15 15 16 16 15 16 18 18 17 18 16 16 16 14 14 15 15 16 16 15 14 12 21 19 17 11 10 11 11 12 21 21 21 21 20 19
7 6 9 11 15 13 13 14 15 15 15 16 16 18 18 18 18 17 17 16 15 14 17 17 17 16 14 14 12 19 15 14 10 12 11 10 18 21 21 21 21 20 19
0 3 4 7 9 11 10 11 13 14 13 14 17 17 18 18 17 18 17 18 17 16 17 17 18 17 16 15 14 16 13 13 11 9 11 9 19 21 21 21 22 21 20
3 2 4 5 5 7 8 9 9 11 12 12 12 14 13 13 14 15 13 15 18 17 20 18 18 18 17 15 16 18 14 11 12 11 9 9 20 21 22 22 21 21 20
5 7 4 4 5 6 7 9 11 11 11 12 11 12 12 9 10 12 13 14 18 18 18 18 17 20 15 13 15 20 16 6 8 7 7 20 23 21 21 22 21 21 20
7 7 6 7 5 5 6 7 8 8 8 7 6 7 7 9 10 10 12 14 16 15 17 15 18 16 12 5 7 16 7 9 7 8 8 21 24 23 21 21 21 21 20
4 6 7 6 7 8 7 5 5 7 7 7 9 8 6 6 7 8 6 8 8 11 8 11 10 6 7 6 9 10 8 9 6 6 12 21 25 26 22 21 22 21 19
3 4 6 5 6 7 4 6 5 4 7 8 11 11 7 5 6 7 6 9 8 6 8 7 6 7 6 6 11 7 11 8 6 6 11 19 24 26 23 23 24 24 21
3 3 5 6 5 5 5 4 5 5 6 8 9 12 12 9 9 8 7 8 9 7 8 8 7 8 8 7 7 10 12 11 9 7 8 13 21 25 25 22 22 23 24
3 4 4 6 6 4 4 5 4 4 5 5 8 11 14 12 12 10 10 10 9 9 9 9 9 8 7 9 8 9 11 11 12 11 8 10 19 23 26 24 22 22 24
3 3 4 5 4 6 6 3 4 4 4 7 7 9 13 14 12 13 10 10 10 10 12 10 8 7 7 6 8 6 6 6 10 11 10 9 11 18 22 26 24 23 23
4 5 5 4 6 6 6 5 3 4 4 4 7 6 10 15 15 12 10 10 11 10 11 11 11 9 8 8 5 4 4 4 4 6 6 6 8 8 14 21 23 25 25
3 3 4 4 6 7 7 5 6 6 5 4 4 7 8 12 16 15 13 12 13 12 11 12 11 13 10 7 7 6 5 4 2 3 4 5 5 6 7 15 20 22 24
4 5 6 6 7 7 5 5 5 5 6 6 5 5 9 8 9 16 16 16 15 13 13 13 15 12 11 12 9 8 6 5 4 4 4 3 4 4 4 11 10 11 22
9 8 9 8 8 4 3 4 4 5 5 5 5 8 10 6 8 10 14 20 19 20 18 18 14 17 9 11 11 6 6 6 6 4 3 4 4 4 4 3 4 8 10
10 10 9 7 7 6 6 7 4 4 6 9 9 10 9 10 11 10 13 16 23 19 23 20 20 13 7 13 10 6 4 0 3 4 5 3 5 3 4 5 4 6 6
15 12 10 11 10 10 12 11 10 10 7 6 9 8 8 10 9 8 11 11 20 21 18 20 21 22 11 12 15 8 6 6 5 2 4 3 3 3 3 4 5 7 5
12 12 16 14 15 15 16 13 15 14 15 10 9 9 9 9 11 12 12 12 15 17 20 21 21 21 14 16 9 4 2 9 7 4 1 1 1 1 3 2 5 7 7
14 14 15 16 17 17 16 16 13 15 12 10 10 13 13 10 9 10 12 12 13 10 21 24 23 21 17 18 13 10 3 1 7 6 5 4 1 2 1 1 2 4 6
13 15 15 17 18 17 16 16 18 19 16 13 12 11 10 8 7 10 13 12 12 11 17 23 24 27 22 19 16 14 13 9 10 6 5 5 7 4 2 2 2 2 5
Wind_Direction
192 174 171 171 166 167 167 159 155 151 147 143 140 139 139 135 139 143 143 142 139 138 139 142 137 133 130 132 130 128 125 126 125 125 120 127 120 112 107 104 95 91 92
155 168 173 173 170 169 175 161 158 157 156 152 151 149 152 156 155 155 153 157 147 145 145 146 147 142 136 137 133 130 124 110 108 96 112 119 122 115 107 99 94 98 95
158 161 170 171 174 171 179 165 161 163 163 163 160 160 162 169 166 163 159 161 154 149 146 138 139 135 137 139 137 134 128 114 103 107 108 113 119 109 104 98 102 101 100
157 159 171 164 178 174 175 169 166 168 171 171 171 167 164 164 163 174 158 154 150 149 148 147 144 137 137 140 140 138 132 123 115 112 111 115 113 109 110 111 104 104 103
150 165 171 165 183 180 171 175 173 175 177 182 177 173 165 159 159 156 156 157 153 149 145 139 139 144 146 148 148 140 147 139 117 111 108 110 112 114 115 110 108 108 104
158 168 174 172 182 179 177 182 185 183 185 189 183 179 172 163 163 160 158 165 166 166 157 154 150 149 151 159 152 155 139 130 121 117 110 108 106 116 117 117 114 105 104
177 191 189 169 185 186 189 186 195 194 192 192 191 185 177 173 167 169 168 168 169 163 170 171 163 162 164 163 157 135 134 129 128 119 120 120 123 124 124 118 116 114 110
188 193 190 188 175 191 196 193 193 201 194 187 189 189 183 178 173 175 176 174 174 175 164 170 169 169 169 165 160 142 132 129 125 127 125 124 128 131 128 122 121 119 114
2 260 203 198 199 187 193 195 195 196 201 197 193 194 192 183 180 177 181 179 176 174 170 174 174 171 170 171 162 143 139 139 130 134 130 132 138 134 129 128 122 121 119
23 245 246 270 208 211 194 202 208 204 201 205 204 192 192 191 184 180 183 188 183 184 171 183 180 177 173 171 153 148 154 145 139 137 135 139 137 136 135 132 128 126 123
10 8 345 279 254 249 203 209 211 218 216 204 203 194 190 195 195 187 183 195 191 183 181 188 190 176 168 160 159 155 152 153 147 144 145 149 141 141 138 136 132 129 128
342 338 3 354 304 255 249 232 212 211 217 217 209 202 204 195 199 192 183 197 196 182 180 181 177 170 145 148 160 151 159 155 153 152 151 153 146 143 143 140 136 132 130
325 340 3 8 357 347 293 247 236 216 213 212 202 206 191 193 200 188 190 193 195 186 180 172 162 150 157 150 162 167 164 160 154 157 164 159 149 147 153 147 141 135 133
41 348 335 356 354 347 345 345 271 250 233 214 210 194 189 192 195 192 195 184 190 183 173 158 159 155 157 151 164 168 164 158 160 159 171 169 158 156 160 158 151 143 138
31 342 338 348 5 349 354 339 344 325 284 244 229 212 190 200 198 183 189 188 188 174 176 169 166 167 154 161 154 172 170 158 166 162 173 182 163 163 162 165 154 147 142
341 341 338 343 340 356 346 335 327 321 312 299 272 220 217 211 200 197 188 191 192 178 177 175 173 170 167 159 159 164 175 164 167 170 169 180 174 167 168 167 163 158 152
213 285 309 310 330 338 328 303 311 301 309 307 267 288 233 212 215 199 197 193 188 180 177 173 167 155 152 152 154 149 151 163 165 167 174 174 180 173 178 169 166 165 159
196 232 274 305 316 308 304 303 284 287 287 293 309 284 275 219 204 192 197 199 189 183 179 173 169 161 157 155 136 133 122 145 127 142 148 160 178 177 182 180 174 169 164
238 319 318 306 279 286 297 280 289 287 266 256 263 287 275 282 216 203 196 194 194 186 186 176 174 165 157 142 124 90 68 63 85 94 120 121 129 158 174 182 177 168 168
329 278 281 274 253 258 247 264 272 267 264 253 242 254 285 272 294 225 200 196 185 195 192 181 171 169 163 144 117 86 55 36 37 47 73 78 79 72 128 169 170 170 169
310 299 288 293 282 293 279 264 244 251 259 250 244 254 251 255 287 259 280 200 191 186 192 182 170 160 153 146 118 80 51 34 50 31 42 59 66 55 63 108 140 160 169
309 298 286 286 298 296 293 288 257 259 262 268 267 258 240 246 252 259 243 271 201 191 192 177 170 162 141 178 162 120 141 58 53 11 42 63 36 50 69 65 94 110 150
311 309 307 300 297 297 297 290 284 277 270 258 256 254 241 233 243 253 254 257 244 192 188 174 166 171 156 195 167 143 148 182 128 8 30 43 31 36 45 79 93 88 89
310 314 311 304 306 302 296 285 281 273 271 264 260 261 253 244 246 250 252 253 278 201 182 172 170 175 167 186 174 114 38 136 163 151 21 28 50 78 51 34 97 96 103
312 312 308 305 301 295 291 285 279 273 272 269 266 264 255 244 235 251 256 260 243 273 180 172 171 177 179 182 201 169 139 142 124 141 145 174 196 210 188 71 65 111 100
314 307 303 302 296 294 290 284 279 276 272 265 258 254 251 254 246 248 254 253 252 246 223 177 176 179 183 185 192 195 167 184 173 151 131 160 170 173 173 169 153 127 113